Regional Weather Roundup
Issued by NWS Cleveland, OH

Home | Current Version | Previous Version | Text Only | Print | Product List | Glossary Off
Versions: 1 2 3 4 5 6 7 8 9 10 11 12 13 14 15 16 17 18 19 20 21 22 23 24 25 26 27 28 29 30 31 32 33 34 35 36 37 38 39 40 41 42 43 44 45 46 47 48 49 50

000
ASUS41 KCLE 232310
RWRCLE
OHIO REGIONAL WEATHER ROUNDUP
NATIONAL WEATHER SERVICE WILMINGTON, OH
700 PM EDT SAT JUL 23 2016

NOTE: "FAIR" INDICATES FEW OR NO CLOUDS BELOW 12,000 FEET WITH NO
SIGNIFICANT WEATHER AND/OR OBSTRUCTIONS TO VISIBILITY.

OHZ001>008-015>018-024>027-034-035-043-044-240000-
   NORTHWEST OHIO

CITY           SKY/WX    TMP DP  RH WIND       PRES   REMARKS
DEFIANCE       FAIR      92  64  39 NE5       29.94F HX  93
FINDLAY        FAIR      90  68  48 SW5       29.94F HX  94
TOLEDO EXPRESS FAIR      91  69  48 N5        29.94F HX  96
TOLEDO EXEC    FAIR      91  64  40 E5        29.95F HX  92
LIMA           FAIR      86  75  69 NE3       29.96F HX  95
$$

OHZ009>014-019>023-028>033-038-089-240000-
   NORTHEAST OHIO

CITY           SKY/WX    TMP DP  RH WIND       PRES   REMARKS
CLE-HOPKINS    PTSUNNY   88  65  46 N7        29.98F HX  90
CLE-LAKEFRONT  FAIR      83  73  72 NE5       29.95F
CUY CO. ARPT   MOSUNNY   90  66  45 N7        29.98F HX  92
LORAIN-ELYRIA  FAIR      86  64  47 N5        29.96F
ASHTABULA      FAIR      85  62  46 N5        29.98F
AKRON-CANTON   FAIR      90  66  45 N12       29.96F HX  92
WOOSTER        FAIR      87  70  56 N9        29.98S HX  92
MANSFIELD      FAIR      88  70  55 W3        29.98F HX  93
YOUNGSTOWN     FAIR      87  64  46 N13       29.98S
$$

OHZ042-051>053-060>062-070>072-077>081-240000-
  SOUTHWEST OHIO

CITY           SKY/WX    TMP DP  RH WIND       PRES   REMARKS
CINC-COVINGTON FAIR      91  72  53 W7        29.96F HX  98
CINC-LUNKEN    FAIR      90  71  53 W6        29.93F HX  96
HAMILTON       FAIR      91  71  51 CALM      29.95F HX  97
DAYTON         PTSUNNY   88  72  58 W9        29.97F HX  94
WRIGHT-PAT AFB MOSUNNY   89  71  55 W3        29.95F HX  95
DAYTON GENERAL FAIR      90  69  50 W8        29.96F HX  94
WILMINGTON     PTSUNNY   88  73  61 E3        29.96F HX  95
$$

OHZ036-037-039>041-045>050-054>059-063>069-073>076-082>088-240000-
  CENTRAL AND SOUTHEAST OHIO

CITY           SKY/WX    TMP DP  RH WIND       PRES   REMARKS
COLUMBUS       PTSUNNY   88  70  55 NW6       29.95F HX  93
OSU AIRPORT    FAIR      89  71  55 W5        29.96F HX  95
BOLTON FIELD   SUNNY     88  73  62 CALM      29.97F HX  96
RICKENBACK AFB FAIR      87  74  63 W5        29.95F HX  95
NEWARK         FAIR      88  73  61 W5        29.95F HX  95
MARION         FAIR      90  69  50 NW7       29.96F HX  94
LANCASTER      FAIR      85  75  72 W3        29.96F HX  93
ZANESVILLE     FAIR      92  70  48 W7        29.96F HX  97
NEW PHILLY     LGT RAIN  86  74  67 CALM      29.96S HX  94
$$




USA.gov is the U.S. government's official web portal to all federal, state and local government web resources and services.